This is the latest recevied weather packets stored in our database for station/object KC4LZN. If no packets are shown the sender has not sent any weather packets the latest 10 day(s).
| Time | Temp. | Humidity | Pressure | Rain* | Wind** | Luminosity | Snow |
|---|---|---|---|---|---|---|---|
| 1777555250 | 22.78° C | 87% | 1012.8 hPa | 0 mm | - | 122 W/m² | - |
| 1777554946 | 22.78° C | 88% | 1012.9 hPa | 0 mm | - | 148 W/m² | - |
| 1777554643 | 22.78° C | 89% | 1013.3 hPa | 0 mm | - | 134 W/m² | - |
| 1777554340 | 22.78° C | 88% | 1013.2 hPa | 0 mm | - | 131 W/m² | - |
| 1777554037 | 22.78° C | 89% | 1013.2 hPa | 0 mm | - | 135 W/m² | - |
| 1777553733 | 22.78° C | 90% | 1013.2 hPa | 0 mm | - | 142 W/m² | - |
| 1777553430 | 22.78° C | 90% | 1013.1 hPa | 0 mm | - | 168 W/m² | - |
| 1777553127 | 22.78° C | 90% | 1013.1 hPa | 0 mm | - | 117 W/m² | - |
| 1777552826 | 22.22° C | 92% | 1013.3 hPa | 0 mm | - | 122 W/m² | - |
| 1777552522 | 22.22° C | 93% | 1013.4 hPa | 0 mm | - | 170 W/m² | - |
| 1777552218 | 22.22° C | 94% | 1013.3 hPa | 0 mm | - | 154 W/m² | - |
| 1777551915 | 21.67° C | 95% | 1013.4 hPa | 0 mm | - | 165 W/m² | - |
| 1777551612 | 21.11° C | 96% | 1013.3 hPa | 0 mm | - | 136 W/m² | - |
| 1777551310 | 21.11° C | 97% | 1013.3 hPa | 0 mm | - | 62 W/m² | - |
| 1777551006 | 21.11° C | 98% | 1013.3 hPa | 0 mm | - | 52 W/m² | - |
| 1777550704 | 21.11° C | 98% | 1013.2 hPa | 0 mm | - | 57 W/m² | - |
| 1777550399 | 20.56° C | 98% | 1013 hPa | 0 mm | - | 67 W/m² | - |
| 1777550096 | 20.56° C | 98% | 1012.7 hPa | 0 mm | - | 39 W/m² | - |
| 1777549792 | 20.56° C | 98% | 1012.9 hPa | 0 mm | - | 43 W/m² | - |
| 1777549488 | 20.56° C | 99% | 1012.8 hPa | 0 mm | - | 36 W/m² | - |
| 1777549184 | 20.56° C | 99% | 1012.6 hPa | 0 mm | - | 29 W/m² | - |
| 1777548881 | 20.56° C | 99% | 1012.6 hPa | 0 mm | - | 24 W/m² | - |
* Rain latest hour (hover to see other rain measurements)
** Current wind speed in m/s (hover to see current wind gust speed)